NORTHERN QUEENS  -  Air Quality Alert Air Quality Alert        SOUTHERN QUEENS  -  Air Quality Alert Air Quality Alert      

Active alerts

Northern Queens
  Details for Northern Queens Air Quality Alert
Southern Queens
  Details for Southern Queens Air Quality Alert


WXM80 ListenWXM80 Stop

You find our weather info also at:

UK Metoffice

WeatherCloud

Weather Underground

Northeastern Weather Network

AWEKAS

Citizen Weather Observer Program (CWOP)

HAMweather, WeatherForYou, PWS Weather


Weather Underground History page Text

Daily Summary for August 29, 2017 Units:  Metric    English   Both
« Previous Day
Next Day »
Daily Weekly Monthly Yearly Custom
  High: Low: Average:
Temperature: 20.6 °C 16.9 °C 18.2 °C
Dew Point: 16.9 °C 14.2 °C 15.8 °C
Humidity: 97 % 77 % 86 %
Wind Speed: 13.5 km/h 0 km/h 4.5 km/h
Wind Gust: 22.2 km/h - -
Wind:- - East
Pressure: 1023.2 hPa 1013.4 hPa -
Precipitation: 8.13 mm    
Historical Graphs
 
 
Tabular Data for August 29, 2017
Time Temperature Dew Point Pressure Wind Wind Speed Wind Gust Humidity Rainfall Rate (Hourly)
00:01 17.1 °C 14.2 °C 1022.9 hPa SE 0.5 km/h 3.2 km/h 83 % 0 mm
00:06 17.1 °C 14.2 °C 1022.9 hPa Calm     83 % 0 mm
00:11 17.1 °C 14.2 °C 1022.9 hPa SE 0.5 km/h 3.7 km/h 83 % 0 mm
00:16 17.1 °C 14.4 °C 1022.9 hPa SE 0.2 km/h 1.6 km/h 84 % 0 mm
00:21 17.1 °C 14.4 °C 1022.9 hPa SE 0.2 km/h 1.9 km/h 84 % 0 mm
00:26 17.1 °C 14.3 °C 1022.9 hPa SE 0.2 km/h 1.9 km/h 84 % 0 mm
00:31 17.1 °C 14.3 °C 1023.2 hPa Calm     84 % 0 mm
00:36 17.1 °C 14.3 °C 1022.9 hPa SE 0.3 km/h 3.2 km/h 84 % 0 mm
00:41 17 °C 14.3 °C 1023.2 hPa Calm     84 % 0 mm
00:46 16.9 °C 14.4 °C 1023.2 hPa SE 0.2 km/h 1.9 km/h 85 % 0 mm
00:52 17 °C 14.4 °C 1023.2 hPa Calm   1.9 km/h 85 % 0 mm
00:57 17 °C 14.4 °C 1023.2 hPa SE 0.5 km/h 1.9 km/h 85 % 0 mm
01:02 17 °C 14.4 °C 1022.9 hPa SE 0.3 km/h 1.9 km/h 85 % 0 mm
01:07 17 °C 14.7 °C 1023.2 hPa Calm   1.9 km/h 86 % 0 mm
01:12 17.1 °C 14.7 °C 1023.2 hPa Calm   1.9 km/h 86 % 0 mm
01:17 17.1 °C 14.7 °C 1023.2 hPa Calm   1.9 km/h 86 % 0 mm
01:22 17.1 °C 14.7 °C 1023.2 hPa SE 0.3 km/h 1.9 km/h 86 % 0 mm
01:27 17.1 °C 14.7 °C 1022.9 hPa SE 0.2 km/h 1.9 km/h 86 % 0 mm
01:32 17.1 °C 14.7 °C 1022.9 hPa Calm   1.6 km/h 86 % 0 mm
01:37 17.1 °C 14.7 °C 1022.9 hPa Calm     86 % 0 mm
01:42 17.1 °C 14.7 °C 1022.9 hPa Calm   1.9 km/h 86 % 0 mm
01:47 17.1 °C 14.7 °C 1022.9 hPa SE 0.2 km/h 3.7 km/h 86 % 0 mm
01:48 17.1 °C 14.7 °C 1022.9 hPa Calm   1.9 km/h 86 % 0 mm
01:53 17.1 °C 14.7 °C 1022.6 hPa Calm   1.9 km/h 86 % 0 mm
01:58 17.1 °C 14.7 °C 1022.6 hPa Calm   1.9 km/h 86 % 0 mm
02:03 17.1 °C 14.7 °C 1022.6 hPa SE 0.5 km/h 1.9 km/h 86 % 0 mm
02:09 17.1 °C 14.7 °C 1022.6 hPa SE 0.8 km/h 1.9 km/h 86 % 0 mm
02:14 17.1 °C 14.7 °C 1022.6 hPa SE 0.3 km/h 5.6 km/h 86 % 0 mm
02:19 17.1 °C 14.7 °C 1022.2 hPa SE 0.2 km/h 1.9 km/h 86 % 0 mm
02:24 17.2 °C 14.6 °C 1022.2 hPa SE 1.1 km/h 5.6 km/h 85 % 0 mm
02:29 17.2 °C 14.6 °C 1021.9 hPa SE 1.1 km/h 3.7 km/h 85 % 0 mm
02:34 17.2 °C 14.6 °C 1021.9 hPa SE 1.9 km/h 3.7 km/h 85 % 0 mm
02:39 17.2 °C 14.7 °C 1021.9 hPa SE 1.1 km/h 3.7 km/h 85 % 0 mm
02:44 17.3 °C 14.7 °C 1021.9 hPa SE 0.8 km/h 1.9 km/h 85 % 0 mm
02:49 17.3 °C 14.9 °C 1021.9 hPa SE 0.5 km/h 1.9 km/h 86 % 0 mm
02:54 17.3 °C 14.9 °C 1021.9 hPa SE 0.2 km/h 1.9 km/h 86 % 0 mm
02:59 17.3 °C 14.9 °C 1021.9 hPa Calm     86 % 0 mm
03:04 17.3 °C 14.9 °C 1021.9 hPa SE 0.3 km/h 1.9 km/h 86 % 0 mm
03:09 17.3 °C 15.2 °C 1021.6 hPa SE 1.9 km/h 3.7 km/h 87 % 0 mm
03:15 17.4 °C 15.2 °C 1021.6 hPa SE 1.6 km/h 3.7 km/h 87 % 0 mm
03:20 17.4 °C 15.1 °C 1021.6 hPa ESE 2.6 km/h 5.6 km/h 86 % 0 mm
03:25 17.5 °C 15.1 °C 1021.6 hPa ESE 1.1 km/h 3.7 km/h 86 % 0 mm
03:30 17.6 °C 15 °C 1021.6 hPa ESE 2.4 km/h 3.7 km/h 85 % 0 mm
03:35 17.7 °C 15.1 °C 1021.6 hPa ESE 1.8 km/h 3.7 km/h 85 % 0 mm
03:40 17.7 °C 15 °C 1021.6 hPa East 2.7 km/h 5.6 km/h 84 % 0 mm
03:45 17.8 °C 14.8 °C 1021.6 hPa East 2.6 km/h 5.6 km/h 83 % 0 mm
03:50 17.8 °C 14.9 °C 1021.2 hPa East 3.1 km/h 3.7 km/h 83 % 0 mm
03:55 17.8 °C 14.9 °C 1021.6 hPa East 1.9 km/h 5.6 km/h 83 % 0 mm
04:01 17.9 °C 14.8 °C 1021.6 hPa East 2.9 km/h 5.6 km/h 82 % 0 mm
04:06 17.9 °C 14.6 °C 1021.6 hPa East 3.2 km/h 8 km/h 81 % 0 mm
04:11 18 °C 14.7 °C 1021.2 hPa ESE 1.6 km/h 4.8 km/h 81 % 0 mm
04:16 18.1 °C 14.7 °C 1021.6 hPa East 1.6 km/h 4.8 km/h 81 % 0 mm
04:21 18.1 °C 14.8 °C 1021.6 hPa Calm   4.8 km/h 81 % 0 mm
04:26 18.1 °C 14.7 °C 1021.6 hPa ESE 0.6 km/h 1.9 km/h 81 % 0 mm
04:31 18.1 °C 14.8 °C 1021.6 hPa ESE 1.6 km/h 4.8 km/h 81 % 0 mm
04:36 18.1 °C 14.8 °C 1021.6 hPa ESE 1.6 km/h 4.8 km/h 81 % 0 mm
04:41 18.1 °C 14.9 °C 1021.6 hPa Calm   3.2 km/h 82 % 0 mm
04:46 18.1 °C 14.9 °C 1021.6 hPa Calm   8 km/h 82 % 0 mm
04:51 18 °C 14.9 °C 1021.6 hPa ESE 1.4 km/h 3.7 km/h 82 % 0 mm
04:54 18 °C 14.9 °C 1021.6 hPa ESE 1.9 km/h 5.6 km/h 82 % 0 mm
04:59 17.9 °C 14.8 °C 1021.6 hPa East 0.8 km/h 3.7 km/h 82 % 0 mm
05:04 17.9 °C 14.8 °C 1021.6 hPa ESE 2.9 km/h 5.6 km/h 82 % 0 mm
05:09 17.9 °C 14.8 °C 1021.6 hPa ESE 1.6 km/h 3.7 km/h 82 % 0 mm
05:14 17.9 °C 14.8 °C 1021.6 hPa East 0.3 km/h 3.7 km/h 82 % 0 mm
05:19 17.9 °C 14.8 °C 1021.6 hPa East 2.1 km/h 3.7 km/h 82 % 0 mm
05:24 17.9 °C 14.8 °C 1021.6 hPa ESE 1.1 km/h 5.6 km/h 82 % 0 mm
05:29 17.9 °C 14.8 °C 1021.9 hPa SE 2.3 km/h 3.7 km/h 82 % 0 mm
05:34 17.9 °C 14.8 °C 1021.9 hPa SE 1.3 km/h 3.7 km/h 82 % 0 mm
05:39 17.9 °C 14.8 °C 1021.9 hPa SE 1.8 km/h 5.6 km/h 82 % 0 mm
05:44 17.9 °C 14.8 °C 1021.9 hPa SE 1 km/h 3.7 km/h 82 % 0 mm
05:49 17.9 °C 14.8 °C 1021.9 hPa ESE 2.7 km/h 5.6 km/h 82 % 0 mm
05:54 17.9 °C 14.8 °C 1021.9 hPa East 2.4 km/h 5.6 km/h 82 % 0 mm
05:59 18 °C 14.7 °C 1021.9 hPa ESE 1.3 km/h 5.6 km/h 81 % 0 mm
06:04 18.1 °C 14.7 °C 1021.9 hPa East 0.6 km/h 5.6 km/h 81 % 0 mm
06:10 18.1 °C 14.7 °C 1021.9 hPa ESE 0.8 km/h 3.7 km/h 81 % 0 mm
06:14 18.1 °C 14.8 °C 1021.6 hPa East 4 km/h 5.6 km/h 81 % 0 mm
06:20 18.1 °C 14.8 °C 1021.6 hPa East 4 km/h 5.6 km/h 81 % 0 mm
06:25 18.2 °C 14.8 °C 1021.9 hPa East 2.4 km/h 3.7 km/h 81 % 0 mm
06:30 18.2 °C 14.8 °C 1021.9 hPa East 2.6 km/h 5.6 km/h 81 % 0 mm
06:35 18.2 °C 14.7 °C 1021.9 hPa East 3.5 km/h 7.4 km/h 80 % 0 mm
06:40 18.3 °C 14.8 °C 1021.9 hPa East 2.4 km/h 5.6 km/h 80 % 0 mm
06:45 18.3 °C 14.8 °C 1021.9 hPa East 4.7 km/h 7.4 km/h 80 % 0 mm
06:50 18.3 °C 14.8 °C 1021.9 hPa East 3.5 km/h 7.4 km/h 80 % 0 mm
06:55 18.3 °C 14.6 °C 1021.9 hPa ESE 3.5 km/h 5.6 km/h 79 % 0 mm
07:00 18.3 °C 14.8 °C 1021.9 hPa East 3.4 km/h 5.6 km/h 80 % 0 mm
07:05 18.4 °C 14.7 °C 1021.9 hPa East 2.6 km/h 5.6 km/h 79 % 0 mm
07:10 18.4 °C 14.7 °C 1021.9 hPa East 3.2 km/h 5.6 km/h 79 % 0 mm
07:16 18.4 °C 14.7 °C 1021.9 hPa East 3.4 km/h 8 km/h 79 % 0 mm
07:21 18.5 °C 14.8 °C 1021.9 hPa East 3.2 km/h 9.7 km/h 79 % 0 mm
07:26 18.5 °C 14.8 °C 1021.6 hPa East 3.2 km/h 4.8 km/h 79 % 0 mm
07:31 18.5 °C 14.8 °C 1021.9 hPa East 3.2 km/h 8 km/h 79 % 0 mm
07:36 18.6 °C 15.1 °C 1021.9 hPa East 1.6 km/h 4.8 km/h 80 % 0 mm
07:41 18.6 °C 15.1 °C 1021.9 hPa East 3.2 km/h 4.8 km/h 80 % 0 mm
07:46 18.6 °C 15.1 °C 1021.9 hPa East 3.2 km/h 4.8 km/h 80 % 0 mm
07:51 18.6 °C 15.1 °C 1021.9 hPa East 1.6 km/h 4.8 km/h 80 % 0 mm
07:56 18.7 °C 15.2 °C 1021.9 hPa East 3.2 km/h 8 km/h 80 % 0 mm
08:01 18.7 °C 15.2 °C 1021.9 hPa East 1.4 km/h 3.7 km/h 80 % 0 mm
08:06 18.8 °C 15.3 °C 1021.9 hPa ESE 3.2 km/h 5.6 km/h 80 % 0 mm
08:11 18.8 °C 15.3 °C 1021.6 hPa East 2.9 km/h 5.6 km/h 80 % 0 mm
08:16 18.9 °C 15.4 °C 1021.6 hPa East 3.2 km/h 8 km/h 80 % 0 mm
08:21 18.9 °C 15.4 °C 1021.6 hPa East 3.2 km/h 4.8 km/h 80 % 0 mm
08:26 18.9 °C 15.6 °C 1021.6 hPa East 3.2 km/h 5.6 km/h 81 % 0 mm
08:31 19.1 °C 16.3 °C 1021.2 hPa East 4.8 km/h 8 km/h 84 % 0 mm
08:36 19.1 °C 16.3 °C 1021.2 hPa East 3.2 km/h 8 km/h 84 % 0 mm
08:41 19.2 °C 16.6 °C 1021.2 hPa ENE 8 km/h 14.5 km/h 85 % 0 mm
08:45 19.2 °C 16.8 °C 1021.2 hPa East 5.6 km/h 11.1 km/h 86 % 0 mm
08:50 19.3 °C 16.9 °C 1021.6 hPa ENE 5.6 km/h 18.5 km/h 86 % 0 mm
08:55 19.3 °C 16.7 °C 1021.2 hPa ENE 7.7 km/h 14.8 km/h 85 % 0 mm
09:01 19.3 °C 16.9 °C 1021.2 hPa ENE 7.4 km/h 14.8 km/h 86 % 0 mm
09:06 19.2 °C 16.6 °C 1021.6 hPa NE 7.1 km/h 13 km/h 85 % 0 mm
09:11 19.2 °C 16.6 °C 1021.2 hPa ENE 5.8 km/h 13 km/h 85 % 0 mm
09:16 19.2 °C 16.6 °C 1021.2 hPa NE 3.5 km/h 8 km/h 85 % 0 mm
09:21 19.2 °C 16.6 °C 1021.2 hPa ENE 5.8 km/h 11.1 km/h 85 % 0 mm
09:26 19.2 °C 16.8 °C 1021.2 hPa ENE 6 km/h 12.9 km/h 86 % 0 mm
09:31 19.2 °C 16.6 °C 1021.2 hPa ENE 4.5 km/h 8 km/h 85 % 0 mm
09:36 19.1 °C 16.6 °C 1021.6 hPa ENE 4.3 km/h 5.6 km/h 85 % 0 mm
09:41 19.1 °C 16.6 °C 1021.2 hPa NE 5.3 km/h 11.1 km/h 85 % 0 mm
09:46 19.1 °C 16.6 °C 1021.6 hPa ENE 5.6 km/h 7.4 km/h 85 % 0 mm
09:51 19.1 °C 16.3 °C 1021.6 hPa ENE 6.6 km/h 13 km/h 84 % 0 mm
09:56 19.1 °C 16.6 °C 1021.6 hPa ENE 4.8 km/h 7.4 km/h 85 % 0 mm
10:02 19.1 °C 16.3 °C 1021.6 hPa ENE 4.2 km/h 5.6 km/h 84 % 0 mm
10:12 19.1 °C 16.3 °C 1021.2 hPa East 5.1 km/h 9.7 km/h 84 % 0 mm
10:17 19.2 °C 16.2 °C 1021.2 hPa ENE 7.4 km/h 7.4 km/h 83 % 0 mm
10:22 19.2 °C 16 °C 1021.2 hPa ENE 4.8 km/h 9.3 km/h 82 % 0 mm
10:27 19.2 °C 16.2 °C 1021.2 hPa East 4.5 km/h 8 km/h 83 % 0 mm
10:32 19.2 °C 16.3 °C 1021.2 hPa East 4.7 km/h 7.4 km/h 83 % 0 mm
10:37 19.2 °C 16.3 °C 1021.2 hPa East 4.8 km/h 7.4 km/h 83 % 0 mm
10:42 19.3 °C 16.4 °C 1020.9 hPa ENE 4.8 km/h 5.6 km/h 83 % 0 mm
10:47 19.4 °C 16.5 °C 1021.2 hPa East 5 km/h 8 km/h 83 % 0 mm
10:52 19.4 °C 16.3 °C 1020.9 hPa ENE 4.5 km/h 11.1 km/h 82 % 0 mm
10:57 19.5 °C 16.6 °C 1021.2 hPa East 5.6 km/h 13 km/h 83 % 0 mm
11:02 19.6 °C 16.6 °C 1021.2 hPa East 6.3 km/h 9.3 km/h 83 % 0 mm
11:07 19.6 °C 16.7 °C 1021.2 hPa East 4.3 km/h 5.6 km/h 83 % 0 mm
11:12 19.7 °C 16.9 °C 1021.2 hPa ENE 4.3 km/h 7.4 km/h 84 % 0 mm
11:17 19.8 °C 16.8 °C 1021.2 hPa ENE 3.5 km/h 5.6 km/h 83 % 0 mm
11:22 19.9 °C 16.6 °C 1021.2 hPa East 4 km/h 7.4 km/h 81 % 0 mm
11:27 19.9 °C 16.3 °C 1020.9 hPa ENE 4.2 km/h 7.4 km/h 80 % 0 mm
11:32 19.9 °C 16.2 °C 1020.9 hPa East 4.7 km/h 7.4 km/h 79 % 0 mm
11:38 19.9 °C 16.2 °C 1020.9 hPa ESE 3.7 km/h 5.6 km/h 79 % 0 mm
11:43 19.9 °C 16.2 °C 1020.9 hPa East 5.1 km/h 7.4 km/h 79 % 0 mm
11:48 19.9 °C 16.1 °C 1020.9 hPa East 4 km/h 7.4 km/h 79 % 0 mm
11:53 19.9 °C 16.1 °C 1020.9 hPa East 2.7 km/h 5.6 km/h 79 % 0 mm
11:58 19.9 °C 16.2 °C 1020.5 hPa East 3.9 km/h 8 km/h 79 % 0 mm
12:03 20 °C 16.4 °C 1020.5 hPa East 2.6 km/h 5.6 km/h 80 % 0 mm
12:08 20.1 °C 16.3 °C 1020.5 hPa East 4.5 km/h 9.3 km/h 79 % 0 mm
12:13 20.2 °C 16.4 °C 1020.5 hPa East 3.7 km/h 5.6 km/h 79 % 0 mm
12:18 20.3 °C 16.7 °C 1020.5 hPa East 3.4 km/h 5.6 km/h 80 % 0 mm
12:23 20.4 °C 16.6 °C 1020.5 hPa East 4.3 km/h 7.4 km/h 79 % 0 mm
12:28 20.4 °C 16.7 °C 1020.5 hPa NE 4 km/h 5.6 km/h 79 % 0 mm
12:33 20.6 °C 16.6 °C 1020.5 hPa East 4.2 km/h 7.4 km/h 78 % 0 mm
12:38 20.6 °C 16.4 °C 1020.5 hPa East 5.3 km/h 7.4 km/h 77 % 0 mm
12:43 20.6 °C 16.6 °C 1020.5 hPa ENE 4.5 km/h 7.4 km/h 78 % 0 mm
12:48 20.5 °C 16.6 °C 1020.5 hPa ENE 5 km/h 7.4 km/h 78 % 0 mm
12:53 20.4 °C 16.7 °C 1020.5 hPa ENE 4.3 km/h 5.6 km/h 79 % 0 mm
12:58 20.4 °C 16.6 °C 1020.5 hPa ENE 4 km/h 5.6 km/h 79 % 0 mm
13:03 20.4 °C 16.8 °C 1020.5 hPa ENE 4 km/h 6.4 km/h 80 % 0 mm
13:08 20.4 °C 16.8 °C 1020.2 hPa ENE 4 km/h 5.6 km/h 80 % 0 mm
13:13 20.3 °C 16.4 °C 1020.5 hPa East 3.2 km/h 5.6 km/h 78 % 0 mm
13:18 20.3 °C 16.1 °C 1020.5 hPa East 5.3 km/h 7.4 km/h 77 % 0 mm
13:24 20.2 °C 16.3 °C 1020.5 hPa ENE 4.2 km/h 7.4 km/h 78 % 0 mm
13:29 20.2 °C 16 °C 1020.5 hPa East 5.6 km/h 7.4 km/h 77 % 0 mm
13:34 20.1 °C 15.9 °C 1020.2 hPa East 6.6 km/h 9.3 km/h 77 % 0 mm
13:39 20.1 °C 16.1 °C 1020.2 hPa East 4.5 km/h 7.4 km/h 78 % 0 mm
13:44 20.1 °C 15.9 °C 1020.2 hPa East 6.1 km/h 9.3 km/h 77 % 0 mm
13:49 20 °C 15.8 °C 1020.2 hPa ENE 5 km/h 7.4 km/h 77 % 0 mm
13:54 19.9 °C 15.8 °C 1019.9 hPa East 5 km/h 9.3 km/h 77 % 0 mm
13:59 20 °C 16.2 °C 1019.9 hPa East 5.6 km/h 8 km/h 79 % 0 mm
14:04 20 °C 16.1 °C 1019.5 hPa East 5.8 km/h 8 km/h 78 % 0 mm
14:09 20.1 °C 16.1 °C 1019.5 hPa ENE 5.8 km/h 9.3 km/h 78 % 0 mm
14:14 20 °C 16.2 °C 1019.5 hPa ENE 5.3 km/h 7.4 km/h 79 % 0 mm
14:19 20 °C 16.2 °C 1019.5 hPa ENE 3.5 km/h 5.6 km/h 79 % 0 mm
14:24 20 °C 16.2 °C 1019.5 hPa East 3.9 km/h 5.6 km/h 79 % 0 mm
14:29 19.9 °C 16.2 °C 1019.5 hPa ENE 4.7 km/h 8 km/h 79 % 0 mm
14:34 19.9 °C 16.1 °C 1019.5 hPa ENE 7.2 km/h 14.5 km/h 79 % 0 mm
14:39 19.8 °C 16.1 °C 1019.5 hPa ENE 5.3 km/h 7.4 km/h 79 % 0 mm
14:44 19.8 °C 16.1 °C 1019.5 hPa East 5.6 km/h 11.1 km/h 79 % 0 mm
14:49 19.8 °C 16.2 °C 1019.2 hPa ENE 4.3 km/h 7.4 km/h 80 % 0 mm
14:54 19.8 °C 16.6 °C 1019.2 hPa ENE 4.5 km/h 5.6 km/h 82 % 0 mm
14:59 19.7 °C 16.7 °C 1019.2 hPa East 4.7 km/h 5.6 km/h 83 % 0 mm
15:04 19.6 °C 16.8 °C 1019.2 hPa ENE 4 km/h 5.6 km/h 84 % 0 mm
15:09 19.4 °C 16.8 °C 1018.8 hPa ENE 5.8 km/h 7.4 km/h 85 % 0 mm
15:14 19.3 °C 16.7 °C 1018.8 hPa East 5.5 km/h 9.3 km/h 85 % 0 mm
15:20 19.2 °C 16.8 °C 1018.8 hPa East 5.5 km/h 7.4 km/h 86 % 0 mm
15:25 19 °C 16.8 °C 1018.8 hPa East 5.8 km/h 9.3 km/h 87 % 0.25 mm
15:30 18.8 °C 16.8 °C 1018.5 hPa East 4.7 km/h 9.3 km/h 88 % 0.25 mm
15:35 18.8 °C 16.7 °C 1018.5 hPa East 4.7 km/h 7.4 km/h 88 % 0.25 mm
15:40 18.7 °C 16.6 °C 1018.5 hPa East 4.3 km/h 7.4 km/h 88 % 0.51 mm
15:45 18.6 °C 16.6 °C 1018.5 hPa East 5.5 km/h 9.3 km/h 88 % 0.51 mm
15:50 18.4 °C 16.6 °C 1018.5 hPa East 7.4 km/h 9.3 km/h 89 % 0.51 mm
15:55 18.4 °C 16.6 °C 1018.5 hPa ENE 5 km/h 7.4 km/h 89 % 0.51 mm
16:00 18.3 °C 16.5 °C 1018.5 hPa East 4.3 km/h 7.4 km/h 89 % 0.76 mm
16:05 18.2 °C 16.4 °C 1018.5 hPa East 6 km/h 7.4 km/h 89 % 0.76 mm
16:10 18.1 °C 16.3 °C 1018.5 hPa East 5.8 km/h 9.3 km/h 89 % 0.76 mm
16:15 18.1 °C 16.2 °C 1018.5 hPa East 5.3 km/h 9.3 km/h 89 % 0.76 mm
16:20 18 °C 16.2 °C 1018.5 hPa East 3.2 km/h 5.6 km/h 89 % 0.51 mm
16:23 17.9 °C 16.1 °C 1018.5 hPa East 4.3 km/h 7.4 km/h 89 % 0.76 mm
16:28 17.9 °C 16.1 °C 1018.2 hPa East 4.7 km/h 8 km/h 89 % 0.76 mm
16:33 17.8 °C 16 °C 1018.2 hPa East 5.8 km/h 8 km/h 89 % 0.76 mm
16:38 17.8 °C 16.2 °C 1018.2 hPa East 3.7 km/h 7.4 km/h 90 % 0.51 mm
16:43 17.8 °C 16.2 °C 1018.2 hPa East 5 km/h 7.4 km/h 90 % 0.51 mm
16:48 17.8 °C 16.1 °C 1017.8 hPa East 5.3 km/h 7.4 km/h 90 % 0.51 mm
16:53 17.8 °C 16.1 °C 1017.8 hPa East 4.8 km/h 7.4 km/h 90 % 0.76 mm
16:56 17.8 °C 16.1 °C 1017.8 hPa East 6.8 km/h 8 km/h 90 % 0.76 mm
17:01 17.7 °C 16.2 °C 1017.8 hPa East 8 km/h 9.3 km/h 91 % 0.51 mm
17:06 17.8 °C 16.3 °C 1017.5 hPa East 5.3 km/h 11.3 km/h 91 % 0.51 mm
17:11 17.8 °C 16.3 °C 1017.5 hPa East 6.9 km/h 9.7 km/h 91 % 0.76 mm
17:16 17.7 °C 16.2 °C 1017.5 hPa East 6.4 km/h 9.3 km/h 91 % 0.76 mm
17:21 17.7 °C 16.2 °C 1017.5 hPa East 8.2 km/h 11.3 km/h 91 % 0.51 mm
17:26 17.7 °C 16.4 °C 1017.5 hPa East 6.4 km/h 9.3 km/h 92 % 0.76 mm
17:31 17.7 °C 16.2 °C 1017.5 hPa East 8.2 km/h 9.3 km/h 91 % 0.76 mm
17:36 17.7 °C 16.3 °C 1017.5 hPa East 5.6 km/h 7.4 km/h 92 % 0.76 mm
17:41 17.7 °C 16.3 °C 1017.5 hPa East 5.8 km/h 9.7 km/h 92 % 0.76 mm
17:46 17.6 °C 16.3 °C 1017.2 hPa East 7.4 km/h 9.7 km/h 92 % 1.02 mm
17:51 17.6 °C 16.3 °C 1017.2 hPa East 5.1 km/h 9.3 km/h 92 % 0.76 mm
17:56 17.7 °C 16.5 °C 1017.2 hPa East 7.6 km/h 9.7 km/h 93 % 0.76 mm
18:11 17.6 °C 16.2 °C 1016.8 hPa East 6.8 km/h 9.3 km/h 92 % 0.76 mm
18:21 17.6 °C 16.4 °C 1016.8 hPa East 7.2 km/h 9.3 km/h 93 % 0.76 mm
18:26 17.6 °C 16.4 °C 1016.8 hPa ENE 5.3 km/h 9.3 km/h 93 % 0.51 mm
18:31 17.6 °C 16.3 °C 1016.8 hPa East 7.9 km/h 9.3 km/h 92 % 0.76 mm
18:36 17.6 °C 16.2 °C 1016.8 hPa ENE 13.5 km/h 20.4 km/h 92 % 0.76 mm
18:41 17.6 °C 16.1 °C 1016.8 hPa East 8.9 km/h 14.5 km/h 91 % 0.76 mm
18:46 17.5 °C 16 °C 1016.8 hPa East 12.4 km/h 20.4 km/h 91 % 0.51 mm
18:52 17.4 °C 15.8 °C 1016.5 hPa ENE 12.4 km/h 14.8 km/h 90 % 0.76 mm
18:57 17.4 °C 15.8 °C 1016.8 hPa ENE 8 km/h 18.5 km/h 90 % 0.76 mm
19:02 17.4 °C 15.7 °C 1016.8 hPa East 8.2 km/h 16.7 km/h 90 % 0.51 mm
19:07 17.3 °C 15.7 °C 1016.5 hPa ENE 7.4 km/h 9.3 km/h 90 % 0.76 mm
19:12 17.2 °C 15.6 °C 1016.5 hPa ENE 8.2 km/h 11.1 km/h 90 % 0.76 mm
19:17 17.2 °C 15.6 °C 1016.5 hPa East 8.2 km/h 11.1 km/h 90 % 0.76 mm
19:22 17.1 °C 15.3 °C 1016.8 hPa East 8.9 km/h 11.3 km/h 89 % 0.76 mm
19:27 17.1 °C 15.4 °C 1016.5 hPa East 9 km/h 12.9 km/h 90 % 0.51 mm
19:32 17.1 °C 15.4 °C 1016.5 hPa East 8.5 km/h 11.1 km/h 90 % 0.51 mm
19:37 17.1 °C 15.6 °C 1016.5 hPa ENE 8.7 km/h 13 km/h 91 % 0.76 mm
19:42 17.2 °C 15.5 °C 1016.5 hPa East 6.6 km/h 9.7 km/h 90 % 0.76 mm
19:47 17.2 °C 15.7 °C 1016.5 hPa East 6.9 km/h 14.5 km/h 91 % 0.76 mm
19:52 17.2 °C 15.7 °C 1016.5 hPa East 7.4 km/h 9.3 km/h 91 % 0.51 mm
19:57 17.2 °C 15.7 °C 1016.1 hPa East 7.9 km/h 9.7 km/h 91 % 0.51 mm
20:03 17.2 °C 15.9 °C 1016.1 hPa East 5.6 km/h 13 km/h 92 % 0.51 mm
20:06 17.3 °C 15.9 °C 1016.1 hPa East 9.5 km/h 11.3 km/h 92 % 0.25 mm
20:11 17.3 °C 15.9 °C 1016.1 hPa ENE 5 km/h 9.3 km/h 92 % 0.51 mm
20:16 17.3 °C 16 °C 1016.5 hPa East 5.3 km/h 8 km/h 92 % 0.51 mm
20:21 17.4 °C 16.1 °C 1016.5 hPa East 5.5 km/h 7.4 km/h 92 % 0.51 mm
20:26 17.4 °C 16.1 °C 1016.5 hPa East 6.9 km/h 9.3 km/h 92 % 0.51 mm
20:31 17.3 °C 16.2 °C 1016.1 hPa East 6.3 km/h 8 km/h 93 % 0.51 mm
20:36 17.3 °C 15.9 °C 1015.8 hPa East 6.8 km/h 8 km/h 92 % 0.51 mm
20:41 17.3 °C 16.2 °C 1015.8 hPa East 8.4 km/h 11.1 km/h 93 % 0.51 mm
20:46 17.3 °C 16.1 °C 1015.8 hPa ENE 7.7 km/h 11.1 km/h 93 % 0.51 mm
20:51 17.3 °C 16.1 °C 1015.8 hPa East 5.5 km/h 9.3 km/h 93 % 0.76 mm
20:56 17.3 °C 16.1 °C 1015.8 hPa ENE 7.4 km/h 8 km/h 93 % 0.76 mm
21:01 17.3 °C 16.1 °C 1016.1 hPa East 6.9 km/h 9.3 km/h 93 % 0.76 mm
21:06 17.3 °C 16.3 °C 1016.1 hPa East 5.6 km/h 11.1 km/h 94 % 0.76 mm
21:11 17.4 °C 16.4 °C 1016.1 hPa ENE 6 km/h 7.4 km/h 94 % 0.76 mm
21:16 17.4 °C 16.4 °C 1016.1 hPa ENE 5.5 km/h 13 km/h 94 % 0.76 mm
21:21 17.4 °C 16.4 °C 1015.8 hPa East 6 km/h 9.7 km/h 94 % 1.02 mm
21:26 17.4 °C 16.4 °C 1015.8 hPa ENE 9 km/h 14.8 km/h 94 % 1.02 mm
21:31 17.4 °C 16.4 °C 1015.8 hPa ENE 6.4 km/h 9.3 km/h 94 % 1.27 mm
21:37 17.4 °C 16.4 °C 1015.8 hPa East 8.4 km/h 14.8 km/h 94 % 1.02 mm
21:41 17.4 °C 16.4 °C 1015.8 hPa ENE 6.8 km/h 13 km/h 94 % 1.27 mm
21:47 17.4 °C 16.6 °C 1015.8 hPa ENE 5.1 km/h 18.5 km/h 95 % 1.27 mm
21:52 17.4 °C 16.6 °C 1015.5 hPa ENE 11.4 km/h 16.1 km/h 95 % 1.02 mm
21:57 17.4 °C 16.6 °C 1015.5 hPa ENE 10.1 km/h 14.8 km/h 95 % 1.27 mm
22:02 17.4 °C 16.6 °C 1015.1 hPa ENE 11.9 km/h 20.4 km/h 95 % 1.27 mm
22:07 17.4 °C 16.6 °C 1015.1 hPa ENE 8.9 km/h 16.7 km/h 95 % 1.52 mm
22:12 17.3 °C 16.5 °C 1014.8 hPa East 12.1 km/h 18.5 km/h 95 % 1.52 mm
22:17 17.3 °C 16.5 °C 1014.8 hPa ENE 10.8 km/h 18.5 km/h 95 % 1.78 mm
22:22 17.3 °C 16.4 °C 1014.8 hPa East 8.9 km/h 13 km/h 95 % 1.52 mm
22:27 17.3 °C 16.4 °C 1014.8 hPa East 8.9 km/h 9.7 km/h 95 % 1.52 mm
22:32 17.3 °C 16.4 °C 1014.8 hPa East 6.1 km/h 9.3 km/h 95 % 1.27 mm
22:37 17.3 °C 16.7 °C 1014.8 hPa ENE 7.4 km/h 9.3 km/h 96 % 1.52 mm
22:42 17.3 °C 16.7 °C 1014.8 hPa East 7.1 km/h 11.1 km/h 96 % 1.27 mm
22:47 17.3 °C 16.7 °C 1014.8 hPa SE 5.5 km/h 11.1 km/h 96 % 1.27 mm
22:52 17.3 °C 16.7 °C 1014.8 hPa East 5.8 km/h 9.3 km/h 96 % 1.27 mm
22:57 17.3 °C 16.7 °C 1014.8 hPa East 6.8 km/h 9.7 km/h 96 % 1.27 mm
23:02 17.4 °C 16.7 °C 1014.8 hPa East 8 km/h 13 km/h 96 % 1.27 mm
23:07 17.4 °C 16.7 °C 1014.8 hPa East 6.8 km/h 9.3 km/h 96 % 1.27 mm
23:12 17.3 °C 16.6 °C 1014.8 hPa East 4.8 km/h 9.3 km/h 96 % 1.02 mm
23:17 17.2 °C 16.6 °C 1014.8 hPa ENE 5.5 km/h 7.4 km/h 96 % 1.02 mm
23:22 17.3 °C 16.6 °C 1014.8 hPa ENE 6 km/h 9.3 km/h 96 % 1.02 mm
23:27 17.3 °C 16.6 °C 1014.4 hPa East 3.9 km/h 8 km/h 96 % 1.27 mm
23:32 17.3 °C 16.7 °C 1014.1 hPa East 7.6 km/h 9.7 km/h 96 % 1.52 mm
23:42 17.3 °C 16.7 °C 1014.1 hPa ENE 11.1 km/h 14.8 km/h 96 % 1.52 mm
23:47 17.4 °C 16.9 °C 1013.8 hPa ENE 11.3 km/h 18.5 km/h 97 % 1.78 mm
23:52 17.4 °C 16.8 °C 1013.8 hPa ENE 12.6 km/h 22.2 km/h 96 % 1.78 mm
23:57 17.4 °C 16.8 °C 1013.4 hPa ENE 9.3 km/h 20.4 km/h 96 % 1.52 mm
Crab Meadow Weather
Compliments of Weather Underground - 3 mb

Script developed by  Jim McMurry - jmcmurry@mwt.net Adapted for the template by  Wim van der Kuil - Leuven-Template.eu

Recycling: To produce each week's Sunday newspapers, 500,000 trees must be cut down.